649  
ASUS42 KCHS 281727  
RWRCHS  
 
REGIONAL WEATHER ROUNDUP  
NATIONAL WEATHER SERVICE CHARLESTON SC  
100 PM EDT FRI APR 28 2017  
 
NOTE: "FAIR" INDICATES FEW OR NO CLOUDS BELOW 12,000 FEET WITH NO  
SIGNIFICANT WEATHER AND/OR S TO VISIBILITY
.  
 
NOT ALL STATIONS ARE QUALITY CONTROLLED. USE DATA WITH CAUTION...  
ESPECIALLY DEWPOINT OBSERVATIONS.  
 
SCZ027-030-031-034>040-042>050-281800-   
..SOUTHEAST SOUTH CAROLINA
 
 
 
CITY SKY/WX TMP DP RH WIND PRES REMARKS
 
N CHARLESTON MOSUNNY 86 70 58 S15 30.09F HX 90  
WATERFRONT PRK N/A 79 75 87 S10 30.08S  
JOHNS ISLAND CLOUDY 81 75 83 S12G20 30.10F  
PINOPOLIS N/A 84 72 65 VRB2 30.02F  
MONCKS CORNER FAIR 86 64 48 S9G16 30.08F  
SUMMERVILLE FAIR 86 68 54 SE6 30.09F  
BEAUFORT MCAS MOSUNNY 86 71 60 S7 30.09S HX 91  
BEAUFORT ARPT FAIR 82 72 69 S9 30.09F  
HILTON HEAD IS PTSUNNY 79 75 89 S9 30.11S  
WALTERBORO SUNNY 88 68 51 SE13 30.08F HX 91  
ALLENDALE FAIR 88 68 51 SE10 30.05F HX 91  
   
..SOUTHERN MIDLANDS AND PEE DEE
 
 
 
CITY SKY/WX TMP DP RH WIND PRES REMARKS
 
GEORGETOWN CLOUDY 82 73 74 S14G20 30.11F  
KINGSTREE FAIR 88 64 45 S7 30.08S  
ORANGEBURG SUNNY 87 68 52 S10 30.08S HX 90  
BARNWELL FAIR 90 70 51 S10 30.07S HX 95  
AIKEN FAIR 82 68 61 S7 30.10F  
MANNING FAIR 86 68 54 S25 30.08S  
COLUMBIA MOSUNNY 86 67 52 S12G18 30.05F  
SUMTER SUNNY 87 67 52 S10 30.05F HX 90  
FLORENCE SUNNY 86 70 58 S13 30.08S HX 90  
MYRTLE BEACH NOT AVBL  
N MYRTLE BEACH MOSUNNY 79 74 84 S14 30.10F  
 

 
 
GAZ063-065-086>088-099>101-113>116-118-119-134>141-150-281800-   
..SOUTHEAST GEORGIA
 
 
 
CITY SKY/WX TMP DP RH WIND PRES REMARKS
 
SAVANNAH ARPT MOSUNNY 89 63 41 S12 30.08F HX 90  
HUNTER AAF MOSUNNY 86 72 61 S7 30.06F HX 92  
FORT STEWART MOSUNNY 88 68 50 S6 30.05F HX 91  
STATESBORO MOSUNNY 90 65 43 S12G18 30.07F HX 92  
SYLVANIA MOSUNNY N/A N/A N/A SW5 30.07F  
CLAXTON FAIR 88 71 58 SE8 30.07F HX 94  
   
..CSRA...CENTRAL AND FAR SOUTHEAST GEORGIA
 
 
 
CITY SKY/WX TMP DP RH WIND PRES REMARKS
 
THOMSON SUNNY 84 67 57 W8 30.11F  
AUGUSTA-BUSH MOSUNNY 87 69 54 SW12 30.05F HX 91  
AUGUSTA-DANIEL SUNNY 85 66 53 S10 30.08S  
SWAINSBORO FAIR 86 66 51 SW12G17 30.08S  
VIDALIA MOSUNNY 88 70 55 SW8 30.07F HX 92  
EASTMAN FAIR 87 52 30 S10 30.08F  
HAZLEHURST FAIR 88 71 56 S6 30.05F HX 93  
ALMA SUNNY 89 67 47 S12G17 30.07F HX 92  
WAYCROSS SUNNY 92 72 51 SW8 30.06F HX 99  
JESUP FAIR 90 61 37 W9 30.07F  
BAXLEY FAIR 90 72 55 S8G16 30.06F HX 96  
BRUNSWICK SUNNY 88 70 55 SE8 30.09S HX 92  
SAINT SIMONS SUNNY 83 72 69 SE12 30.09S  
 

 
 
SCZ027-028-034-036>038-045-046-048>050-GAZ119-141-281800-   
..LAKE AND SUPPLEMENTAL COASTAL OBSERVATIONS
 
 
 
STATION/POSITION TIME TEMP WIND PRES WAVE SWELL
 
AIR SEA DIR/SP/G HT/PER HT/PER/DIR  
(UTC) (F) (DEG/KT/KT) (MB) (FT/S) (FT/S/D)  
WINYAH BAY 1645 80 220/ 13 1019.0S  
LAKE MURRAY 1630 80 200/ 3/ 3 1017.9S  
ACE BASIN NERRS 1630 82 180/ 1 1019.0S  
FORT PULASKI 1700 77 75 160/ 6/ 9 1019.6  
SAPELO ISLAND 1645 85 150/ 5 1019.0S  
 

 
 
ANZ835-935-AMZ111-154-330-350-352-354-370-450-454-472-281800-   
..C-MAN AND BUOY OBSERVATIONS
 
 
 
STATION/POSITION TIME TEMP WIND PRES WAVE SWELL
 
AIR SEA DIR/SP/G HT/PER HT/PER/DIR  
(UTC) (F) (DEG/KT/KT) (MB) (FT/S) (FT/S/D)  
BUOY 41004 1710 76 75 180/ 12/ 14 1019.6  
BUOY 41008 1650 74 73 180/ 8/ 10 1018.9S 3/ 9 3/110/ 9  
FOLLY BEACH CMAN 1700 77 200/ 5/ 6 1020.3R  
CAPERS NEARSHORE 1708 74 75 210/ 6/ 8 1019.6S  
FRIPP NEARSHORE 1708 74 74 220/ 10/ 12 1019.4R  
 
 
STATION/POSITION TIME TEMP WIND PRES WAVE SWELL
 
AIR SEA DIR/SP/G HT/PER HT/PER/DIR  
(UTC) (F) (DEG/KT/KT) (MB) (FT/S) (FT/S/D)  
5E ST. MARYS GA 1630 75 N/A 3/ 5  
FRYING PAN BUOY 1710 75 73 200/ 10/ 12 1020.4  
BUOY 41025 1650 78 76 210/ 17/ 19 1020.1R 6/ 8 3/140/ 8  
CAPE LOOKOUT NC 1700 78 210/ 12/ 16 1019.9R  
BUOY 41002 1650 76 76 190/ 10/ 12 1022.6F 4/ 8 3/ 60/ 8  
BUOY 41010 1710 78 79 160/ 12/ 16 1020.6  
ST AUGUSTINE FL 1700 76 77 120/ 9/ 10 1020.1S  
 

 
 
 
CLICK HERE TO GO TO PREVIOUS BULLETINS.

The Nexlab SC Page
The Nexlab GA Page Main Text Page